Location: Bord�res
(43.2000°N, 0.2167°W)
Time: 15:10:44
(UTC+00:00)

Cosmos 1862 Rocket - Pass Details

Date: 03 March 2021
Orbit: 603 x 635 km, 82.5° (Epoch: 21 April)

Event Time Altitude Azimuth Distance (km) Brightness Sun altitude
Rises 19:00:13 0° 348° (NNW) 2,943 7.2 -13.1°
Reaches altitude 10° 19:02:29 10° 345° (NNW) 2,029 6.4 -13.5°
Maximum altitude 19:06:55 62° 265° (W) 713 4.1 -14.3°
Drops below altitude 10° 19:11:19 10° 185° (S) 2,006 6.2 -15.1°
Sets 19:13:33 0° 182° (S) 2,905 7.0 -15.5°
